Weather History for Holdrege, NE

Change the Weather History Date:

Friday, May 16, 2014

  Actual Average Record
Temperature  
Mean Temperature 47 °F -  
Max Temperature 57 °F 75 °F 89 °F (1964)
Min Temperature 37 °F 49 °F 33 °F (2011)
Degree Days  
Heating Degree Days 18    
Moisture  
Dew Point 31 °F    
Average Humidity 56    
Maximum Humidity 71    
Minimum Humidity 38    
Precipitation  
Precipitation 0.00 in - - ()
Sea Level Pressure  
Sea Level Pressure 30.08 in    
Wind  
Wind Speed 8 mph (SE)    
Max Wind Speed 17 mph    
Max Gust Speed 21 mph    
Visibility 10 miles    
Events Rain    
Averages and records for this station are not official NWS values.
T = Trace of Precipitation, MM = Missing Value Source: NWS Daily Summary

Daily Weather History Graph

Daily Weather History Graph

Search for Another Location

Airport:

Trip Planner

Search our weather history database for the weather conditions in past years. The results will help you decide how hot, cold, wet, or windy it might be!

Date:

Astronomy

May. 16, 2014 Rise Set
Actual Time 6:19 AM CDT 8:48 PM CDT
Civil Twilight 5:48 AM CDT 9:19 PM CDT
Nautical Twilight 5:10 AM CDT 9:57 PM CDT
Astronomical Twilight 4:27 AM CDT 10:40 PM CDT
Moon 10:56 PM CDT (5/16) 8:03 AM CDT (5/16)
Length of Visible Light 15h 30m
Length of Day
14h 28m
Waning Gibbous, 95% of the Moon is Illuminated
May 16
Waning Gibbous
May 21
Last Quarter
May 28
New
Jun 5
First Quarter
Jun 12
Full

Hourly Weather History & Observations

Time (CDT) Temp. Windchill Dew Point Humidity Pressure Visibility Wind Dir Wind Speed Gust Speed Precip Events Conditions
12:15 AM 39.4 °F 33.8 °F 25.3 °F 57% 30.15 in 10.0 mi East 8.1 mph - N/A   Clear
12:35 AM 39.0 °F 34.8 °F 25.7 °F 59% 30.15 in 10.0 mi SE 5.8 mph - N/A   Clear
1:15 AM 37.6 °F 34.0 °F 26.4 °F 64% 30.15 in 10.0 mi SSE 4.6 mph - N/A   Clear
1:35 AM 39.6 °F 35.4 °F 27.3 °F 62% 30.16 in 10.0 mi SSE 5.8 mph - N/A   Clear
1:55 AM 39.4 °F 35.2 °F 27.1 °F 62% 30.15 in 10.0 mi SSE 5.8 mph - N/A   Clear
2:15 AM 37.6 °F 35.1 °F 27.3 °F 66% 30.15 in 10.0 mi SSE 3.5 mph - N/A   Clear
2:35 AM 37.8 °F 35.3 °F 27.5 °F 67% 30.14 in 10.0 mi SSE 3.5 mph - N/A   Clear
2:55 AM 38.7 °F 36.3 °F 27.7 °F 65% 30.13 in 10.0 mi SSE 3.5 mph - N/A   Clear
3:15 AM 38.5 °F 35.0 °F 28.4 °F 67% 30.13 in 10.0 mi South 4.6 mph - N/A   Clear
3:35 AM 38.5 °F 35.0 °F 27.5 °F 65% 30.13 in 10.0 mi South 4.6 mph - N/A   Clear
3:55 AM 38.5 °F 35.0 °F 27.7 °F 65% 30.13 in 10.0 mi SSE 4.6 mph - N/A   Clear
4:15 AM 38.3 °F 34.8 °F 28.2 °F 67% 30.12 in 10.0 mi South 4.6 mph - N/A   Scattered Clouds
4:35 AM 39.7 °F 37.6 °F 28.2 °F 63% 30.12 in 10.0 mi South 3.5 mph - N/A   Scattered Clouds
4:55 AM 40.1 °F 36.1 °F 27.5 °F 61% 30.12 in 10.0 mi SSW 5.8 mph - N/A   Clear
5:15 AM 39.6 °F - 28.8 °F 65% 30.12 in 10.0 mi Calm Calm - N/A   Mostly Cloudy
5:35 AM 41.4 °F 36.2 °F 27.1 °F 57% 30.10 in 10.0 mi SSW 8.1 mph - N/A   Overcast
5:55 AM 41.4 °F 38.4 °F 26.8 °F 56% 30.09 in 10.0 mi South 4.6 mph - N/A   Mostly Cloudy
6:15 AM 42.1 °F 37.7 °F 26.2 °F 53% 30.09 in 10.0 mi South 6.9 mph - N/A   Scattered Clouds
6:35 AM 42.3 °F 37.3 °F 26.2 °F 53% 30.08 in 10.0 mi South 8.1 mph - N/A   Mostly Cloudy
6:55 AM 41.9 °F 38.2 °F 27.9 °F 58% 30.07 in 10.0 mi SSE 5.8 mph - N/A   Overcast
7:15 AM 41.2 °F 37.3 °F 29.1 °F 62% 30.08 in 10.0 mi South 5.8 mph - N/A   Overcast
7:35 AM 41.5 °F 35.9 °F 29.5 °F 62% 30.07 in 10.0 mi SSW 9.2 mph - N/A   Overcast
7:55 AM 42.3 °F 37.3 °F 29.1 °F 60% 30.07 in 10.0 mi South 8.1 mph - N/A   Overcast
8:15 AM 43.0 °F 38.2 °F 30.2 °F 61% 30.06 in 10.0 mi South 8.1 mph - N/A   Overcast
8:35 AM 43.9 °F 38.8 °F 29.8 °F 58% 30.06 in 10.0 mi SSE 9.2 mph - N/A   Overcast
8:55 AM 43.7 °F 38.1 °F 29.1 °F 57% 30.05 in 10.0 mi South 10.4 mph - N/A   Overcast
9:15 AM 44.2 °F 39.2 °F 28.4 °F 54% 30.04 in 10.0 mi SSE 9.2 mph - N/A   Overcast
9:35 AM 44.1 °F 39.0 °F 28.9 °F 55% 30.04 in 10.0 mi South 9.2 mph - N/A   Overcast
9:55 AM 44.4 °F 40.5 °F 30.4 °F 58% 30.04 in 10.0 mi SSE 6.9 mph - N/A   Overcast
10:15 AM 44.6 °F 40.2 °F 29.8 °F 56% 30.04 in 10.0 mi South 8.1 mph - N/A Rain Light Rain
10:35 AM 44.8 °F 40.4 °F 30.7 °F 58% 30.05 in 10.0 mi South 8.1 mph - N/A Rain Light Rain
10:55 AM 45.0 °F 40.1 °F 32.7 °F 62% 30.06 in 10.0 mi South 9.2 mph - N/A Rain Light Rain
11:15 AM 45.1 °F 40.8 °F 34.0 °F 65% 30.06 in 10.0 mi South 8.1 mph - N/A Rain Light Rain
11:35 AM 46.8 °F - 34.7 °F 63% 30.05 in 10.0 mi SSE 8.1 mph - N/A   Mostly Cloudy
11:55 AM 47.5 °F - 32.5 °F 56% 30.04 in 10.0 mi SE 10.4 mph - N/A   Overcast
12:15 PM 49.6 °F - 32.2 °F 51% 30.02 in 10.0 mi SE 13.8 mph - N/A   Overcast
12:35 PM 51.4 °F - 32.4 °F 48% 30.02 in 10.0 mi SE 11.5 mph - N/A   Overcast
12:55 PM 51.4 °F - 32.0 °F 47% 30.02 in 10.0 mi SE 11.5 mph 18.4 mph N/A   Mostly Cloudy
1:15 PM 51.3 °F - 32.0 °F 48% 30.01 in 10.0 mi ESE 10.4 mph - N/A   Mostly Cloudy
1:35 PM 51.3 °F - 31.8 °F 47% 30.02 in 10.0 mi SE 9.2 mph - N/A   Overcast
1:55 PM 52.3 °F - 32.2 °F 46% 30.02 in 10.0 mi SE 9.2 mph - N/A   Overcast
2:15 PM 52.9 °F - 32.4 °F 46% 30.00 in 10.0 mi ESE 11.5 mph - N/A   Overcast
2:35 PM 52.3 °F - 32.0 °F 46% 30.02 in 10.0 mi SE 10.4 mph - N/A   Overcast
3:15 PM 53.6 °F - 32.2 °F 44% 30.02 in 10.0 mi ESE 13.8 mph - N/A   Overcast
3:35 PM 54.9 °F - 33.1 °F 44% 30.03 in 10.0 mi ESE 12.7 mph - N/A   Overcast
3:55 PM 55.2 °F - 32.2 °F 42% 30.04 in 10.0 mi East 12.7 mph 18.4 mph N/A   Overcast
4:15 PM 56.5 °F - 32.2 °F 40% 30.02 in 10.0 mi SE 16.1 mph 20.7 mph N/A   Scattered Clouds
4:35 PM 57.4 °F - 32.0 °F 38% 30.02 in 10.0 mi SE 15.0 mph 20.7 mph N/A   Scattered Clouds
4:55 PM 56.3 °F - 32.0 °F 40% 30.02 in 10.0 mi SSE 10.4 mph 13.8 mph N/A   Scattered Clouds
5:15 PM 55.9 °F - 32.0 °F 40% 30.02 in 10.0 mi SSE 12.7 mph 17.3 mph N/A   Mostly Cloudy
5:35 PM 56.5 °F - 32.5 °F 40% 30.03 in 10.0 mi SSE 12.7 mph - N/A   Scattered Clouds
5:55 PM 55.9 °F - 32.7 °F 41% 30.03 in 10.0 mi SSE 10.4 mph - N/A   Scattered Clouds
6:15 PM 56.3 °F - 32.5 °F 41% 30.04 in 10.0 mi SE 11.5 mph - N/A   Clear
6:35 PM 55.4 °F - 33.3 °F 43% 30.04 in 10.0 mi SE 6.9 mph - N/A   Mostly Cloudy
6:55 PM 55.2 °F - 32.7 °F 43% 30.05 in 10.0 mi East 10.4 mph - N/A   Mostly Cloudy
7:15 PM 55.6 °F - 33.1 °F 43% 30.05 in 10.0 mi SE 12.7 mph - N/A   Mostly Cloudy
7:35 PM 54.5 °F - 33.8 °F 46% 30.06 in 10.0 mi SSE 9.2 mph - N/A   Mostly Cloudy
7:55 PM 52.9 °F - 34.3 °F 49% 30.08 in 10.0 mi SE 10.4 mph - N/A   Mostly Cloudy
8:15 PM 50.7 °F - 35.6 °F 56% 30.09 in 10.0 mi East 17.3 mph - N/A   Overcast
8:35 PM 49.6 °F - 35.2 °F 58% 30.10 in 10.0 mi East 12.7 mph - N/A   Overcast
8:55 PM 48.2 °F - 36.5 °F 64% 30.10 in 10.0 mi ENE 15.0 mph - N/A   Overcast
9:15 PM 47.3 °F - 36.5 °F 66% 30.12 in 10.0 mi ENE 12.7 mph - N/A   Overcast
9:35 PM 47.3 °F - 36.5 °F 66% 30.12 in 10.0 mi East 9.2 mph - N/A   Overcast
9:55 PM 46.8 °F - 36.9 °F 68% 30.13 in 10.0 mi East 9.2 mph - N/A   Overcast
10:15 PM 47.3 °F - 36.5 °F 66% 30.14 in 10.0 mi East 11.5 mph - N/A   Overcast
10:35 PM 46.9 °F - 36.5 °F 67% 30.14 in 10.0 mi ESE 12.7 mph - N/A   Overcast
10:55 PM 46.6 °F - 36.1 °F 67% 30.15 in 10.0 mi ESE 10.4 mph - N/A   Overcast
11:15 PM 46.4 °F 42.4 °F 36.1 °F 67% 30.14 in 10.0 mi ESE 8.1 mph - N/A   Overcast
11:35 PM 45.5 °F 41.3 °F 36.3 °F 70% 30.15 in 10.0 mi SE 8.1 mph - N/A   Overcast
11:55 PM 45.5 °F 41.8 °F 36.5 °F 71% 30.15 in 10.0 mi SSE 6.9 mph - N/A   Overcast